Theta_e
312 312 311 311 311 311 311 312 313 313 315 318 321 323 323 324 324 322 319 318 318 317 319 318 319 320 315 308 308 315 319 318 323 322 317 313 306 302 298 300 302 300 302 305 306 306 306
311 311 311 311 310 310 311 310 310 311 312 315 318 320 321 323 323 322 320 319 318 318 318 318 318 317 307 297 309 309 310 312 321 320 316 313 309 307 302 301 299 301 302 302 304 304 305
311 311 310 310 309 309 310 310 309 309 311 313 315 318 318 321 322 322 320 319 318 318 318 317 318 312 303 299 309 309 309 308 312 318 314 315 313 307 305 300 304 303 298 300 301 302 302
310 310 309 309 309 308 307 307 307 308 310 311 312 315 316 318 320 321 320 319 318 318 319 318 318 308 296 309 310 308 308 306 309 314 312 315 314 309 305 305 300 298 298 292 297 301 302
308 309 308 309 309 309 308 308 307 307 310 310 311 312 314 316 319 320 320 319 318 318 317 318 308 302 295 310 306 308 307 304 305 307 308 315 310 303 303 296 291 294 287 290 293 300 300
308 308 309 309 309 309 308 308 307 306 308 309 310 311 312 314 315 319 319 318 317 315 314 313 309 298 301 299 305 306 308 306 302 302 301 301 300 295 296 293 282 285 288 290 290 296 296
310 310 309 308 308 308 308 307 307 307 307 308 309 310 311 311 315 318 316 309 302 300 304 297 297 297 300 305 307 304 306 303 301 298 292 296 293 289 291 292 292 291 289 288 291 296 293
310 309 309 309 308 308 307 307 306 307 307 308 309 309 310 310 314 315 312 301 299 299 293 301 301 301 304 304 298 302 306 297 295 290 292 291 287 293 294 294 293 292 289 289 292 293 292
309 309 309 309 308 308 307 307 306 306 307 307 308 308 308 310 312 311 306 302 304 302 290 293 299 298 300 302 297 298 301 297 293 289 290 287 289 293 292 290 289 289 288 287 287 290 291
309 309 309 308 308 307 307 306 306 306 306 307 307 307 308 309 306 310 303 306 305 301 279 286 292 297 299 301 295 303 303 298 293 290 291 290 293 291 289 288 289 285 290 289 288 286 280
309 308 308 307 307 307 306 306 305 306 305 305 306 306 308 309 304 304 306 307 303 296 268 288 292 304 301 295 295 296 303 299 290 290 290 287 288 288 288 288 289 286 291 289 288 286 285
308 308 307 307 306 306 306 306 305 305 305 305 305 308 308 306 305 307 309 307 298 279 270 286 293 294 293 294 296 298 298 302 299 292 292 288 293 291 289 291 291 293 289 288 288 286 279
307 307 306 306 306 305 305 305 305 305 305 305 307 308 307 306 300 307 309 301 283 273 287 285 288 293 292 290 293 294 292 291 289 284 284 289 290 292 293 287 290 290 285 279 277 277 276
306 305 306 306 305 305 305 304 304 305 306 306 306 308 306 306 307 305 304 290 277 282 283 291 290 291 288 290 291 292 290 288 292 290 285 280 277 289 293 289 286 286 286 279 273 274 277
305 305 305 305 305 305 304 304 304 305 306 307 307 302 303 305 306 304 294 283 280 283 289 288 289 286 285 289 290 290 290 289 291 292 284 281 281 289 290 291 291 286 282 288 281 282 278
304 305 305 305 304 304 304 304 303 305 307 307 300 300 299 306 305 299 288 285 283 290 291 290 284 286 283 286 286 287 287 289 290 293 294 287 280 285 289 291 291 289 291 281 282 274 273
305 305 305 304 304 304 303 303 304 305 306 306 298 293 301 306 303 293 284 284 287 293 293 289 287 285 286 286 286 286 285 288 291 290 293 289 285 282 288 286 285 286 284 286 285 283 276
305 304 304 304 303 303 303 303 304 305 307 302 294 288 303 306 287 287 287 288 294 293 296 294 292 290 287 287 287 286 285 286 291 290 288 290 287 280 281 289 291 289 286 286 280 278 280
304 304 304 303 303 303 303 302 303 305 306 300 290 293 303 300 285 287 290 291 292 292 293 293 291 293 292 288 285 286 286 291 292 290 288 290 285 277 279 285 289 286 287 287 286 285 279
304 304 304 304 303 303 302 302 303 305 306 301 292 286 294 297 295 290 288 288 288 294 294 295 294 294 292 290 290 286 286 291 292 292 296 294 286 282 279 283 287 284 285 287 285 281 280
304 304 304 303 303 303 301 302 303 304 307 302 294 288 292 286 289 291 290 288 288 288 293 294 293 294 291 288 289 287 288 289 291 294 294 291 284 285 286 287 287 285 286 286 284 285 280
304 304 304 303 303 303 301 302 304 305 307 298 291 292 294 291 293 291 291 286 287 290 293 290 290 293 294 290 291 287 289 288 288 290 291 293 285 286 284 287 287 284 286 287 286 286 286
303 303 303 303 302 302 301 303 304 305 305 296 297 298 295 292 291 289 287 289 289 292 294 296 294 293 292 294 298 298 298 296 293 291 289 289 287 285 281 287 286 283 287 287 287 289 288
303 303 303 303 302 302 302 301 303 304 305 300 299 297 293 288 291 290 290 290 291 293 291 296 296 294 299 303 300 299 298 296 295 294 295 289 286 286 282 285 279 290 295 292 289 290 291
303 303 303 302 302 302 302 301 302 303 305 299 300 297 296 289 291 291 290 290 290 292 294 295 296 299 302 300 292 291 291 291 291 292 293 295 289 285 282 282 287 290 292 291 288 288 292
303 303 302 302 302 302 302 301 302 302 304 301 299 303 299 291 289 294 292 292 291 290 293 295 298 299 298 293 290 286 283 284 282 284 289 293 292 287 284 280 281 287 295 295 296 287 294
303 303 302 302 302 302 302 301 302 301 303 301 299 303 299 295 296 295 292 292 297 295 292 293 295 294 297 290 287 286 285 286 281 283 284 286 286 284 284 283 285 291 292 297 286 287 292
302 301 301 301 301 301 301 301 302 301 303 301 297 303 297 296 296 297 298 295 293 292 291 293 293 294 294 289 289 288 287 285 282 283 284 284 282 283 285 283 277 291 292 288 291 291 292
301 300 301 301 301 301 301 301 300 301 302 303 295 300 300 298 298 301 301 299 301 299 297 296 295 296 296 292 292 293 289 284 283 281 285 283 287 285 285 285 291 292 292 294 293 291 291
Wind_Speed
21 22 22 22 24 23 23 24 25 24 24 24 22 22 17 16 17 13 11 8 5 5 5 3 3 4 2 3 4 2 5 5 2 10 8 7 4 4 3 2 2 3 2 3 4 6 5
22 22 22 23 22 22 23 23 23 25 26 26 26 21 21 16 17 13 12 9 7 6 4 2 2 2 4 5 1 4 5 3 4 9 6 5 4 4 2 2 3 2 3 5 6 8 5
20 21 23 22 23 23 25 24 25 25 26 25 26 23 19 19 15 16 14 11 9 8 7 4 3 2 2 10 4 2 5 2 2 5 5 2 5 4 4 1 2 3 5 8 9 8 8
22 21 23 24 23 24 24 25 26 24 25 24 25 24 18 21 14 16 15 13 10 8 8 7 5 2 6 1 1 2 1 2 3 3 3 6 4 3 2 0 3 2 3 3 3 1 6
22 22 22 23 24 25 25 25 24 24 25 23 25 23 21 19 19 15 16 13 10 7 4 8 4 4 7 1 2 3 4 5 5 3 3 6 5 4 2 3 2 3 4 5 5 5 3
21 20 23 23 25 25 25 27 26 21 23 26 24 22 20 21 17 12 17 13 8 6 4 4 3 1 3 2 3 4 1 5 3 6 3 4 3 4 3 5 6 4 5 4 4 1 3
22 23 25 22 23 24 28 27 27 27 23 26 25 23 20 22 14 12 18 10 5 2 4 7 5 2 2 2 4 3 3 5 4 4 5 1 5 9 11 6 5 1 3 7 5 8 10
23 23 23 24 23 24 25 26 25 26 23 27 25 21 18 24 17 19 16 8 8 10 6 13 2 3 2 1 4 2 6 6 5 5 5 3 10 11 1 8 10 11 13 15 10 6 9
24 25 25 26 26 25 25 26 26 24 26 24 22 23 21 22 21 11 16 9 9 9 5 2 7 5 4 3 2 7 8 4 4 6 7 6 2 2 10 6 8 11 13 12 13 8 13
25 26 26 25 25 27 26 27 25 25 23 24 22 23 25 23 10 3 14 9 9 6 6 5 4 5 6 6 5 7 8 5 2 10 5 10 9 6 4 6 8 15 5 11 13 7 8
25 25 25 26 26 26 26 26 25 25 23 23 27 30 29 18 6 7 8 10 9 6 3 4 4 3 7 11 5 2 3 3 7 6 6 5 6 5 12 12 7 6 5 6 8 8 9
26 26 27 26 26 26 25 26 27 25 22 23 31 27 19 5 3 6 14 9 6 7 7 6 5 7 8 6 5 4 6 0 3 5 5 6 3 6 9 7 13 3 2 8 2 5 10
26 26 25 26 26 26 24 24 27 26 23 24 30 26 10 5 4 3 14 8 4 5 3 8 7 9 10 7 6 7 9 9 5 4 6 5 15 5 4 3 1 9 3 3 5 7 8
27 26 28 27 26 26 24 24 26 27 27 29 29 22 7 5 5 4 11 6 4 6 4 4 7 9 5 10 4 8 10 8 11 2 2 5 6 11 8 14 7 12 11 7 6 6 4
27 27 27 26 26 25 24 25 27 26 27 27 26 2 3 3 8 2 10 3 7 6 10 11 12 6 3 3 3 5 7 5 9 15 7 4 4 1 7 5 7 4 11 9 6 11 7
26 28 27 27 26 24 24 26 26 28 28 23 8 3 2 8 7 1 2 4 3 3 14 10 6 5 10 10 7 9 7 4 5 10 10 2 5 5 2 5 5 7 1 3 6 5 9
28 27 27 27 26 25 25 26 26 28 28 19 5 2 3 5 5 2 2 2 5 3 6 4 5 6 6 7 7 6 5 3 6 5 12 5 5 2 4 10 11 8 6 5 3 5 4
26 26 26 25 24 24 23 26 26 28 30 4 3 2 6 6 4 2 3 6 5 4 3 4 4 5 5 7 6 4 6 5 6 8 10 8 4 6 10 8 15 14 15 18 10 8 5
26 26 26 25 23 22 23 24 26 29 30 4 4 2 4 3 4 3 2 3 5 3 2 2 3 3 3 5 5 5 4 5 9 10 11 9 5 3 5 1 4 10 14 20 16 8 16
26 25 26 25 24 23 24 24 25 29 31 10 2 1 3 1 1 6 5 4 5 4 3 3 4 4 3 3 3 3 5 3 11 8 9 10 5 9 10 12 2 7 17 18 16 7 13
25 25 25 25 23 23 24 25 25 27 35 5 3 0 1 4 1 5 3 4 6 4 1 3 2 3 6 4 4 5 6 3 5 10 9 9 8 12 19 23 18 18 12 19 20 23 14
24 25 24 24 23 24 24 24 25 27 32 4 5 1 1 4 6 6 4 4 6 4 4 3 3 6 7 4 6 4 6 5 6 6 8 6 6 4 18 19 21 22 24 21 22 21 21
24 24 24 23 23 23 24 23 24 25 22 2 2 3 1 7 6 5 5 7 6 6 4 3 6 4 8 8 6 9 6 6 4 6 11 4 3 3 12 5 11 9 13 20 20 21 15
25 22 22 22 22 22 22 23 23 25 22 4 2 3 2 4 7 7 9 5 5 7 2 1 6 4 3 3 3 4 7 11 13 13 9 5 3 3 8 7 3 3 5 12 20 17 21
24 24 23 22 21 21 22 21 23 23 25 7 3 3 2 3 6 6 9 7 2 0 3 3 4 4 1 2 2 4 0 3 7 11 11 14 4 4 4 6 7 5 8 1 8 10 20
23 23 22 21 20 20 20 21 22 24 25 10 5 2 3 3 7 4 5 5 4 4 1 2 2 2 3 3 2 3 3 5 4 1 7 5 4 1 4 5 4 3 5 3 1 3 3
23 22 20 21 21 21 21 20 20 22 24 11 4 4 3 2 2 5 6 6 5 4 2 1 3 3 2 3 3 4 3 3 3 3 4 4 2 4 4 4 8 4 5 2 4 7 7
21 22 21 21 20 19 20 21 21 23 23 13 6 3 5 3 2 1 4 5 3 4 4 3 2 1 2 2 2 3 3 5 2 4 5 6 5 4 3 3 7 0 2 1 3 5 4
20 20 19 20 21 19 18 18 20 21 20 16 4 6 6 4 2 1 2 2 2 6 5 3 1 3 3 4 4 4 4 2 3 4 1 3 6 4 8 7 4 4 6 5 3 3 3
Wind_Direction
0 360 358 354 349 347 347 343 342 340 335 334 335 331 282 259 230 223 228 219 230 251 277 300 2 28 16 261 246 355 342 351 328 143 172 149 131 127 181 190 138 227 272 258 298 303 268
356 354 354 353 351 345 340 340 337 339 332 331 335 334 328 282 240 216 216 202 211 230 246 203 59 60 102 226 274 36 349 43 85 152 166 143 143 153 187 214 177 218 250 267 279 265 256
350 352 350 348 350 348 346 338 338 334 329 328 325 329 329 318 256 217 206 194 194 223 221 205 131 95 116 239 103 309 359 40 57 126 143 157 140 141 158 207 242 247 290 280 239 227 239
345 354 348 343 344 346 339 336 330 333 323 322 321 327 331 321 289 216 193 192 186 227 218 196 151 88 242 247 100 201 159 77 79 91 108 147 136 144 169 263 349 227 211 257 269 220 242
344 340 344 343 341 342 339 336 333 330 321 323 319 319 327 322 318 224 183 188 166 189 236 182 101 128 263 285 169 195 163 150 126 98 98 131 128 159 122 142 311 216 251 230 303 198 288
336 340 337 341 336 333 332 332 329 326 325 320 321 311 326 323 308 248 170 162 144 99 94 98 86 258 251 204 152 117 271 129 122 115 90 136 171 168 178 171 223 194 229 242 227 337 349
339 332 330 339 328 328 326 331 329 321 323 323 320 305 315 326 295 281 156 118 113 164 200 195 190 232 99 103 117 73 161 99 89 97 168 196 200 209 204 200 207 159 245 247 264 288 309
329 328 328 328 327 327 326 325 326 323 324 320 321 312 306 315 287 294 163 165 186 162 184 234 168 283 275 349 113 121 146 135 145 164 134 151 236 235 321 206 230 247 262 269 294 286 284
326 327 329 333 332 324 324 323 330 327 320 318 327 319 311 307 298 286 187 169 144 117 101 247 200 186 181 128 194 182 155 133 140 148 190 193 141 157 198 207 226 236 245 269 270 297 277
333 330 330 329 328 322 324 325 327 323 322 318 325 316 310 302 290 194 190 160 148 106 83 223 186 238 159 112 257 183 178 142 150 188 170 249 239 218 170 206 197 256 216 242 255 263 267
331 332 330 331 329 324 325 323 324 322 321 326 320 306 294 278 314 197 149 175 133 60 67 147 157 152 154 164 149 239 175 91 155 174 152 215 185 183 219 230 167 230 197 221 228 239 286
331 335 333 331 329 328 325 323 323 322 322 326 309 307 294 257 180 259 157 145 71 65 242 152 126 165 150 199 137 118 164 262 141 183 233 218 196 169 192 196 191 116 296 251 238 234 245
336 332 336 334 330 330 327 326 320 324 326 315 311 310 268 167 177 315 155 129 130 147 141 154 169 162 168 162 171 153 172 182 179 172 212 222 229 183 154 160 206 162 171 239 227 212 245
333 336 341 334 333 333 328 325 327 325 329 325 323 306 226 191 139 34 154 174 132 158 162 148 126 131 169 144 205 165 161 198 221 158 167 198 311 183 181 214 200 181 183 201 224 218 238
334 339 339 337 336 335 330 331 328 327 328 329 328 289 159 166 145 30 165 154 179 183 143 133 122 146 169 184 139 163 205 206 195 188 197 188 266 355 192 184 201 187 213 233 268 263 265
341 344 339 338 341 338 334 331 329 334 330 343 318 281 159 142 128 348 171 132 109 104 119 139 129 176 173 178 171 182 183 211 210 178 190 156 275 216 172 161 237 205 205 172 190 239 245
337 341 342 342 343 343 337 334 335 333 335 338 291 237 132 121 97 142 149 172 111 135 124 130 116 145 149 165 171 181 209 285 186 184 175 135 208 258 147 202 199 197 227 211 279 223 243
340 343 345 345 343 341 341 337 336 339 335 342 292 236 146 175 105 153 147 178 118 110 20 99 99 103 134 142 161 188 218 228 174 142 178 197 216 237 233 208 203 213 230 219 233 219 228
342 346 346 348 343 345 341 342 339 338 337 338 325 255 167 87 144 122 229 66 84 100 96 83 91 84 118 150 150 199 189 228 165 164 172 163 213 299 292 34 214 221 217 225 227 247 235
344 347 345 346 348 344 348 345 343 339 338 322 248 155 84 186 298 126 162 87 96 39 97 91 106 93 109 149 238 162 223 261 185 195 178 174 210 211 241 249 162 230 223 217 220 226 245
344 345 346 347 349 345 351 346 345 348 334 330 211 233 177 161 127 153 113 100 111 113 94 159 116 202 178 192 193 218 213 238 168 200 189 181 252 239 252 264 266 253 238 214 217 230 227
346 345 346 345 346 351 351 346 344 353 336 11 343 18 331 148 139 132 90 184 174 133 164 171 172 182 187 219 204 204 208 189 207 176 185 194 260 255 270 263 254 256 249 228 222 225 237
346 344 346 347 348 350 348 348 346 350 348 351 295 283 255 161 156 151 198 163 183 131 228 155 204 182 208 237 247 247 249 262 230 174 194 214 235 259 273 307 275 249 252 231 229 220 218
346 344 345 346 347 350 350 347 347 347 354 321 278 266 270 166 166 189 170 171 146 188 118 80 150 204 199 192 252 248 236 245 243 240 206 197 189 237 291 304 267 315 302 238 220 224 223
345 345 344 349 349 348 346 349 346 343 348 342 294 261 258 123 191 185 159 190 164 347 191 178 209 209 154 298 320 298 315 270 241 231 223 218 153 280 288 302 275 327 331 33 178 236 224
345 346 341 347 345 345 347 346 345 346 348 340 314 286 286 138 215 153 137 167 148 178 119 229 29 28 194 181 161 252 224 250 302 9 1 178 150 182 341 308 318 287 330 16 288 298 268
345 349 348 342 347 344 344 345 346 345 346 352 287 339 276 287 287 136 166 168 122 134 170 124 173 157 204 164 216 219 240 249 256 211 179 151 194 218 240 274 284 280 307 326 7 303 339
348 351 350 350 345 346 345 341 347 347 346 358 286 355 328 328 302 54 149 129 94 157 163 167 118 102 131 213 227 233 222 233 214 222 185 181 158 205 185 234 293 27 45 164 258 309 312
347 345 345 344 340 340 339 342 349 338 341 352 311 319 307 241 290 340 352 25 155 179 137 174 169 126 190 222 220 235 216 204 192 262 28 238 193 187 177 218 231 218 233 278 305 252 310